weather.gov     
National Weather Service

Other Surface Observations
NWS Homepage
This page is being discontinued on March 12, 2014.
The same data is available at this site. Please update your bookmarks.
Thank you, and we apologize for the inconvenience.
Please send an email to SR-SRH.Webmaster@noaa.gov with any concerns.


Current Version
Previous Version:    01  02  03  04  05  06  07  08  09  10  11  12  13  14  15  16  17  18  19  20  21  22  23  24  25  26  27  28  29  30  
   31  32  33  34  35  36  37  38  39  40  41  42  43  44  45  46  47  48  49  50  51  52  53  54  55  56  57  58  59  60  
[Printable]
499
SXUS52 KTAE 260618
OSOTAE
OSOTAE
North Florida/South Alabama/Southwest Georgia Weather Roundup
National Weather Service Tallahassee Florida
200 AM EDT SUN OCT 26 2014

Note: "fair" indicates few or no clouds below 12,000 feet with no
significant weather and/or obstructions to visibility.

!FLZ017-115-028-034-025-260700
...North Florida...

CITY           SKY/WX    TMP DP  RH WIND       PRES   REMARKS
TALLAHASSEE    CLEAR     50  44  80 CALM      30.01S
APALACHICOLA   CLEAR     58  50  75 CALM      30.01F
PERRY          CLEAR     50  48  93 CALM      30.00F
CROSS CITY       N/A     50  47  89 CALM      30.00S
JACKSONVILLE   CLEAR     50  50 100 CALM      29.98F
$$

!FLZ112-006-005-002-011-260700
...Florida Panhandle...

CITY           SKY/WX    TMP DP  RH WIND       PRES   REMARKS
MARIANNA       LGT RAIN  52  52 100 CALM      30.02F
BONIFAY        FAIR      51  51 100 CALM      30.03F
PANAMA CITY NW FAIR      53  49  86 NW5       30.02S
TYNDALL AFB    CLEAR     62  53  72 N3        30.02F
TYND DRONE APT FAIR      59  55  86 MISG      30.01F
DE FUNIAK SPR  FAIR      56  52  85 N5        30.04S
EGLIN AFB      CLEAR     58  51  75 N5        30.03F
DESTIN         CLEAR     63  55  75 N6        30.03F
HURLBURT       CLEAR     55  48  77 N6        30.02F
CRESTVIEW      CLEAR     49  48  97 CALM      30.05F
PENSACOLA      CLEAR     60  52  74 NW3       30.03F
$$

!ALZ063-066-260700
...South Alabama...

CITY           SKY/WX    TMP DP  RH WIND       PRES   REMARKS
DOTHAN         CLEAR     54  50  86 CALM      30.06F
OZARK CAIRNS   CLEAR     56  50  81 NW1       30.03F
FT RUCKER HELI CLEAR     50  49  96 CALM      30.02F
RUCKER HELI 3  FAIR      55  51  87 N5        30.05F
RUCKER HELI 2  FAIR      53  50  89 NW3       30.03F
FLORALA APT    CLEAR     53  49  86 CALM      30.05F
ANDALUSIA      CLEAR     57  51  80 CALM      30.04F
TROY           CLEAR     51  49  92 CALM      30.05F
EUFALA         FAIR      54  51  90 CALM      30.02S
MOBILE         CLEAR     56  55  97 CALM      30.06F
$$

!GAZ120>161-260700
...Southwest and South Central Georgia...

CITY           SKY/WX    TMP DP  RH WIND       PRES   REMARKS
THOMASVILLE    FAIR      54  50  87 CALM      30.02S
BAINBRIDGE     CLEAR     54  50  87 CALM      30.02F
MOODY AFB      CLEAR     54  47  78 CALM      29.99F
VALDOSTA       CLEAR     49  44  83 CALM      30.00S
MOULTRIE       CLEAR     52  52 100 CALM      30.01F
BLAKELY        CLEAR     54  52  94 CALM        N/A
ALBANY         CLEAR     52  49  89 CALM      30.03F
TIFTON         FAIR      55  47  76 CALM      30.00S
FITZGERALD     FAIR      54  48  82 W3        30.02S
CORDELE        FAIR      53  50  90 CALM      30.02S
AMERICUS       FAIR      54  50  87 CALM      30.03S
HOMERVILLE     FAIR      52  50  93 CALM      29.99F
$$

!GMZ750-755-770-775-260700
...Coastal and Buoy Obs...

STATION/POSITION TIME  TEMP    WIND        PRES    VSBY  WAVE
                       AIR SEA DIR/SP/G                  HT/PER
                 (UTC) (F)     (DEG/KT/KT) (MB)    (MI)  (FT/S)
KEATON BEACH     0600   60      20/  4/  6 1016.0F
CEDAR KEY        0558   65     360/  5/  6 1016.0F
C TOWER          0600   72     360/ 12/ 13 1016.0F
APALACHICOLA BUO 0600   75 80   30/ 10/ 14 1015.8F         2/ 3
PANAMA CITY BUOY 0527   76 79   20/ 12/ 16 1016.4F         3/ 4
MOBILE BUOY      0502   74 78  340/ 12/ 14 1018.0F         2/ 4
ORANGE BCH AL BU 0600   74 77  360/  6/  8 1016.9F         1
$$




U.S. Dept. of Commerce
NOAA National Weather Service
1325 East West Highway
Silver Spring, MD 20910
E-mail: w-nws.webmaster@noaa.gov
Page last modified: May 16, 2007
NATIONAL WEATHER SERVICE: for Safety, for Work, for Fun - FOR LIFE